Starlink 35742

operational
NORAD ID: 66277 Int'l Des: 2025-247 Owner: SPXS Country: US Constellation: starlink
NOTLE

关于 Starlink 35742

正在加载描述...

实时位置

正在加载3D地球...

即将过境

高度历史

Altitude vs Time

uPlot chart will show altitude changes over time

两行轨道根数

1 66277C 25247M 25305.06506944 .00481660 00000+0 72396-3 0 3052
2 66277 53.1567 79.7673 0008803 260.3838 310.7234 16.03384779 14
Epoch: Nov 1, 2025 • Age: 46 hours

当前状态

高度 262.9 km
速度 7.75 km/s
星下点 18.64°N, 77.85°E
发射日期 Oct 31, 2025
运行时间 2 days
类型 internet

技术详情

分类 Payload
质量 575.00 kg
干质量 530.00 kg
总质量 575.00 kg
长度 0.30 m
直径 4.10 m
跨度 29.00 m
形状 Box + pan
制造商 SPXS
平台类型 Starlink V2MO
阶段状态 In Orbit
所有者/国家 SPXS/US

大型星座

Loading constellations...